| time (UTC) | temp F | wind direction | speed MPH | gust MPH | rain 1hr in | rain 24hr in | rain mn in | humidity % | barometer mb |
| 20260508135503 | 54 | 33 | 2.0 | 6.0 | 0.00 | 0.00 | 0.00 | 42 | 1017.0 |
| 20260508135003 | 54 | 358 | 2.0 | 5.0 | 0.00 | 0.00 | 0.00 | 43 | 1016.8 |
| 20260508134524 | 53 | 349 | 2.0 | 4.0 | 0.00 | 0.00 | 0.00 | 43 | 1016.8 |
| 20260508134003 | 52 | 38 | 1.0 | 4.0 | 0.00 | 0.00 | 0.00 | 46 | 1016.8 |
| 20260508133503 | 52 | 309 | 1.0 | 4.0 | 0.00 | 0.00 | 0.00 | 43 | 1016.7 |
| 20260508133024 | 52 | 300 | 1.0 | 3.0 | 0.00 | 0.00 | 0.00 | 47 | 1016.7 |
| 20260508132503 | 52 | 311 | 2.0 | 4.0 | 0.00 | 0.00 | 0.00 | 43 | 1016.6 |
| 20260508132003 | 51 | 316 | 2.0 | 4.0 | 0.00 | 0.00 | 0.00 | 44 | 1016.6 |
| 20260508131503 | 50 | 308 | 2.0 | 4.0 | 0.00 | 0.00 | 0.00 | 47 | 1016.5 |
| 20260508131003 | 50 | 308 | 2.0 | 4.0 | 0.00 | 0.00 | 0.00 | 47 | 1016.5 |
| 20260508130503 | 50 | 318 | 2.0 | 4.0 | 0.00 | 0.00 | 0.00 | 48 | 1016.4 |
| 20260508130003 | 49 | 298 | 2.0 | 4.0 | 0.00 | 0.00 | 0.00 | 50 | 1016.4 |
| 20260508125524 | 49 | 275 | 2.0 | 4.0 | 0.00 | 0.00 | 0.00 | 52 | 1016.4 |
| 20260508125003 | 49 | 292 | 1.0 | 3.0 | 0.00 | 0.00 | 0.00 | 50 | 1016.4 |
| 20260508124524 | 48 | 354 | 1.0 | 3.0 | 0.00 | 0.00 | 0.00 | 50 | 1016.4 |
| 20260508124003 | 48 | 356 | 1.0 | 3.0 | 0.00 | 0.00 | 0.00 | 48 | 1016.3 |
| 20260508123503 | 47 | 317 | 1.0 | 2.0 | 0.00 | 0.00 | 0.00 | 52 | 1016.3 |
| 20260508123003 | 46 | 342 | 1.0 | 3.0 | 0.00 | 0.00 | 0.00 | 56 | 1016.2 |
| 20260508122503 | 45 | 7 | 1.0 | 3.0 | 0.00 | 0.00 | 0.00 | 56 | 1016.3 |
| 20260508122024 | 44 | 105 | 1.0 | 3.0 | 0.00 | 0.00 | 0.00 | 60 | 1016.2 |
| 20260508121503 | 44 | 127 | 1.0 | 3.0 | 0.00 | 0.00 | 0.00 | 61 | 1016.2 |
| 20260508121003 | 43 | 142 | 1.0 | 3.0 | 0.00 | 0.00 | 0.00 | 63 | 1016.1 |
| 20260508120503 | 42 | 128 | 1.0 | 3.0 | 0.00 | 0.00 | 0.00 | 68 | 1016.0 |
| 20260508120003 | 42 | 113 | 0.0 | 2.0 | 0.00 | 0.00 | 0.00 | 73 | 1016.0 |
| 20260508115503 | 41 | 113 | 0.0 | 2.0 | 0.00 | 0.00 | 0.00 | 72 | 1015.9 |
| 20260508115024 | 41 | 113 | 0.0 | 2.0 | 0.00 | 0.00 | 0.00 | 76 | 1015.8 |
| 20260508114503 | 40 | 114 | 1.0 | 3.0 | 0.00 | 0.00 | 0.00 | 77 | 1015.6 |
| 20260508114003 | 40 | 96 | 2.0 | 4.0 | 0.00 | 0.00 | 0.00 | 76 | 1015.6 |
| 20260508113503 | 40 | 91 | 2.0 | 4.0 | 0.00 | 0.00 | 0.00 | 77 | 1015.6 |
| 20260508113004 | 39 | 93 | 1.0 | 4.0 | 0.00 | 0.00 | 0.00 | 77 | 1015.5 |
| 20260508112503 | 39 | 76 | 0.0 | 3.0 | 0.00 | 0.00 | 0.00 | 78 | 1015.5 |
| 20260508112003 | 39 | 136 | 0.0 | 2.0 | 0.00 | 0.00 | 0.00 | 78 | 1015.4 |
| 20260508111503 | 39 | 136 | 0.0 | 2.0 | 0.00 | 0.00 | 0.00 | 77 | 1015.3 |
| 20260508111003 | 39 | 136 | 0.0 | 2.0 | 0.00 | 0.00 | 0.00 | 76 | 1015.3 |
| 20260508110503 | 39 | 136 | 1.0 | 3.0 | 0.00 | 0.00 | 0.00 | 75 | 1015.2 |
| 20260508110004 | 40 | 136 | 0.0 | 3.0 | 0.00 | 0.00 | 0.00 | 74 | 1015.2 |
| 20260508105503 | 40 | 136 | 1.0 | 2.0 | 0.00 | 0.00 | 0.00 | 74 | 1015.2 |
| 20260508105003 | 40 | 128 | 1.0 | 2.0 | 0.00 | 0.00 | 0.00 | 73 | 1015.0 |
| 20260508104503 | 41 | 108 | 1.0 | 4.0 | 0.00 | 0.00 | 0.00 | 72 | 1014.8 |
| 20260508104003 | 41 | 73 | 1.0 | 4.0 | 0.00 | 0.00 | 0.00 | 71 | 1014.8 |
| 20260508103503 | 42 | 52 | 2.0 | 4.0 | 0.00 | 0.00 | 0.00 | 70 | 1014.7 |
| 20260508103004 | 42 | 347 | 2.0 | 4.0 | 0.00 | 0.00 | 0.00 | 68 | 1014.6 |
| 20260508102503 | 42 | 283 | 2.0 | 8.0 | 0.00 | 0.00 | 0.00 | 65 | 1014.4 |
| 20260508102003 | 43 | 295 | 3.0 | 8.0 | 0.00 | 0.00 | 0.00 | 64 | 1014.4 |
| 20260508101524 | 43 | 317 | 3.0 | 8.0 | 0.00 | 0.00 | 0.00 | 65 | 1014.3 |
| 20260508101003 | 43 | 319 | 3.0 | 8.0 | 0.00 | 0.00 | 0.00 | 65 | 1014.3 |
| 20260508100503 | 43 | 321 | 4.0 | 10.0 | 0.00 | 0.00 | 0.00 | 66 | 1014.2 |
| 20260508100003 | 43 | 322 | 4.0 | 10.0 | 0.00 | 0.00 | 0.00 | 66 | 1014.3 |
| 20260508095503 | 43 | 319 | 4.0 | 9.0 | 0.00 | 0.00 | 0.00 | 66 | 1014.2 |
| 20260508095003 | 43 | 315 | 4.0 | 11.0 | 0.00 | 0.00 | 0.00 | 66 | 1014.4 |
| 20260508094503 | 43 | 312 | 5.0 | 11.0 | 0.00 | 0.00 | 0.00 | 66 | 1014.3 |
| 20260508094003 | 43 | 319 | 4.0 | 9.0 | 0.00 | 0.01 | 0.00 | 67 | 1014.4 |
| 20260508093503 | 43 | 326 | 3.0 | 9.0 | 0.00 | 0.01 | 0.00 | 67 | 1014.3 |
| 20260508093003 | 43 | 318 | 3.0 | 6.0 | 0.00 | 0.01 | 0.00 | 67 | 1014.3 |
| 20260508092503 | 43 | 327 | 3.0 | 6.0 | 0.00 | 0.01 | 0.00 | 68 | 1014.4 |
| 20260508092003 | 42 | 349 | 3.0 | 10.0 | 0.00 | 0.01 | 0.00 | 69 | 1014.4 |
| 20260508091503 | 42 | 355 | 2.0 | 10.0 | 0.00 | 0.01 | 0.00 | 69 | 1014.4 |
| 20260508091003 | 42 | 355 | 3.0 | 8.0 | 0.00 | 0.01 | 0.00 | 70 | 1014.3 |
| 20260508090503 | 42 | 6 | 3.0 | 8.0 | 0.00 | 0.01 | 0.00 | 70 | 1014.3 |
| 20260508090003 | 42 | 17 | 2.0 | 6.0 | 0.00 | 0.01 | 0.00 | 70 | 1014.3 |
| 20260508085503 | 42 | 25 | 2.0 | 7.0 | 0.00 | 0.01 | 0.00 | 71 | 1014.3 |
| 20260508085003 | 42 | 17 | 3.0 | 8.0 | 0.00 | 0.01 | 0.00 | 71 | 1014.4 |
| 20260508084503 | 42 | 14 | 2.0 | 8.0 | 0.00 | 0.01 | 0.00 | 72 | 1014.3 |
| 20260508084003 | 42 | 23 | 1.0 | 6.0 | 0.00 | 0.01 | 0.00 | 73 | 1014.4 |
| 20260508083503 | 42 | 3 | 1.0 | 3.0 | 0.00 | 0.01 | 0.00 | 74 | 1014.4 |
| 20260508083003 | 42 | 347 | 1.0 | 2.0 | 0.00 | 0.01 | 0.00 | 76 | 1014.4 |
| 20260508082503 | 42 | 18 | 1.0 | 3.0 | 0.00 | 0.01 | 0.00 | 74 | 1014.4 |
| 20260508082003 | 42 | 21 | 1.0 | 5.0 | 0.00 | 0.01 | 0.00 | 73 | 1014.4 |
| 20260508081524 | 42 | 14 | 1.0 | 5.0 | 0.00 | 0.01 | 0.00 | 74 | 1014.4 |
| 20260508081003 | 42 | 35 | 1.0 | 4.0 | 0.00 | 0.01 | 0.00 | 75 | 1014.4 |
| 20260508080503 | 43 | 350 | 1.0 | 4.0 | 0.00 | 0.01 | 0.00 | 75 | 1014.3 |
| 20260508080003 | 43 | 277 | 1.0 | 4.0 | 0.00 | 0.01 | 0.00 | 74 | 1014.2 |
| 20260508075503 | 43 | 178 | 1.0 | 4.0 | 0.00 | 0.01 | 0.00 | 75 | 1014.2 |
| 20260508075003 | 43 | 39 | 2.0 | 4.0 | 0.00 | 0.01 | 0.00 | 75 | 1014.2 |
| 20260508074503 | 43 | 351 | 2.0 | 7.0 | 0.00 | 0.01 | 0.00 | 73 | 1014.2 |
| 20260508074003 | 43 | 321 | 1.0 | 8.0 | 0.00 | 0.01 | 0.00 | 74 | 1014.1 |
| 20260508073503 | 43 | 321 | 1.0 | 8.0 | 0.00 | 0.01 | 0.00 | 74 | 1014.2 |
| 20260508073003 | 44 | 313 | 2.0 | 6.0 | 0.00 | 0.01 | 0.00 | 74 | 1014.2 |
| 20260508072503 | 44 | 305 | 2.0 | 8.0 | 0.00 | 0.01 | 0.00 | 75 | 1014.1 |
| 20260508072003 | 44 | 316 | 3.0 | 8.0 | 0.00 | 0.01 | 0.00 | 75 | 1014.1 |
| 20260508071503 | 43 | 329 | 2.0 | 6.0 | 0.00 | 0.01 | 0.00 | 76 | 1014.1 |
| 20260508071003 | 44 | 341 | 2.0 | 6.0 | 0.00 | 0.01 | 0.00 | 75 | 1014.2 |
| 20260508070510 | 44 | 348 | 2.0 | 9.0 | 0.00 | 0.01 | 0.00 | 75 | 1014.2 |
| 20260508070003 | 44 | 347 | 2.0 | 9.0 | 0.00 | 0.01 | 0.00 | 76 | 1014.2 |
| 20260508065503 | 44 | 333 | 2.0 | 9.0 | 0.00 | 0.01 | 0.00 | 77 | 1014.3 |
| 20260508065003 | 44 | 341 | 2.0 | 8.0 | 0.00 | 0.01 | 0.00 | 77 | 1014.2 |
| 20260508064504 | 44 | 349 | 3.0 | 8.0 | 0.00 | 0.01 | 0.00 | 77 | 1014.2 |
| 20260508064003 | 44 | 348 | 3.0 | 9.0 | 0.00 | 0.02 | 0.00 | 77 | 1014.2 |
| 20260508063503 | 44 | 341 | 2.0 | 9.0 | 0.00 | 0.02 | 0.00 | 77 | 1014.2 |
| 20260508063024 | 44 | 326 | 2.0 | 8.0 | 0.00 | 0.02 | 0.00 | 78 | 1014.4 |
| 20260508062503 | 44 | 331 | 2.0 | 4.0 | 0.00 | 0.02 | 0.00 | 78 | 1014.4 |
| 20260508062024 | 44 | 334 | 2.0 | 8.0 | 0.00 | 0.02 | 0.00 | 78 | 1014.4 |
| 20260508061503 | 44 | 326 | 3.0 | 8.0 | 0.00 | 0.02 | 0.00 | 78 | 1014.5 |
| 20260508061003 | 45 | 334 | 3.0 | 6.0 | 0.00 | 0.02 | 0.00 | 78 | 1014.4 |
| 20260508060503 | 45 | 336 | 2.0 | 6.0 | 0.00 | 0.02 | 0.00 | 78 | 1014.5 |
| 20260508060003 | 45 | 332 | 2.0 | 6.0 | 0.00 | 0.02 | 0.00 | 78 | 1014.5 |
| 20260508055503 | 45 | 338 | 2.0 | 5.0 | 0.00 | 0.02 | 0.00 | 78 | 1014.5 |
| 20260508055003 | 45 | 326 | 3.0 | 10.0 | 0.00 | 0.02 | 0.00 | 79 | 1014.6 |
| 20260508054503 | 45 | 333 | 3.0 | 10.0 | 0.00 | 0.02 | 0.00 | 79 | 1014.5 |
| 20260508054003 | 45 | 322 | 3.0 | 8.0 | 0.00 | 0.02 | 0.00 | 79 | 1014.5 |
| 20260508053503 | 46 | 305 | 3.0 | 8.0 | 0.00 | 0.02 | 0.00 | 80 | 1014.5 |
| 20260508053003 | 46 | 317 | 3.0 | 8.0 | 0.00 | 0.02 | 0.00 | 79 | 1014.6 |
| 20260508052503 | 46 | 325 | 2.0 | 4.0 | 0.00 | 0.02 | 0.00 | 80 | 1014.5 |
| 20260508052003 | 46 | 330 | 1.0 | 3.0 | 0.00 | 0.02 | 0.00 | 79 | 1014.5 |
| 20260508051503 | 46 | 323 | 2.0 | 8.0 | 0.00 | 0.02 | 0.00 | 80 | 1014.5 |
| 20260508051003 | 46 | 321 | 3.0 | 8.0 | 0.00 | 0.02 | 0.00 | 79 | 1014.4 |
| 20260508050503 | 46 | 316 | 2.0 | 7.0 | 0.00 | 0.02 | 0.00 | 79 | 1014.4 |
| 20260508050045 | 46 | 321 | 2.0 | 7.0 | 0.00 | 0.02 | 0.00 | 79 | 1014.4 |
| 20260508045503 | 47 | 340 | 2.0 | 10.0 | 0.00 | 0.02 | 0.00 | 79 | 1014.3 |
| 20260508045003 | 47 | 355 | 3.0 | 10.0 | 0.00 | 0.02 | 0.00 | 79 | 1014.2 |
| 20260508044503 | 47 | 350 | 3.0 | 9.0 | 0.00 | 0.02 | 0.00 | 78 | 1014.3 |
| 20260508044003 | 47 | 328 | 3.0 | 9.0 | 0.00 | 0.02 | 0.00 | 79 | 1014.3 |
| 20260508043503 | 47 | 322 | 3.0 | 9.0 | 0.00 | 0.02 | 0.00 | 78 | 1014.2 |
| 20260508043003 | 48 | 344 | 3.0 | 9.0 | 0.00 | 0.02 | 0.00 | 79 | 1014.2 |
| 20260508042503 | 48 | 356 | 3.0 | 9.0 | 0.00 | 0.02 | 0.00 | 78 | 1014.1 |
| 20260508042003 | 48 | 333 | 4.0 | 10.0 | 0.00 | 0.02 | 0.00 | 77 | 1014.1 |
| 20260508041504 | 48 | 309 | 4.0 | 10.0 | 0.00 | 0.03 | 0.00 | 77 | 1014.1 |
| 20260508041003 | 48 | 303 | 3.0 | 9.0 | 0.00 | 0.03 | 0.00 | 77 | 1014.1 |
| 20260508040503 | 48 | 309 | 2.0 | 8.0 | 0.00 | 0.03 | 0.00 | 78 | 1014.1 |
| 20260508040003 | 48 | 308 | 3.0 | 7.0 | 0.00 | 0.03 | 0.00 | 78 | 1013.9 |
| 20260508035524 | 48 | 307 | 4.0 | 10.0 | 0.00 | 0.03 | 0.03 | 78 | 1013.8 |
| 20260508035003 | 48 | 320 | 3.0 | 10.0 | 0.00 | 0.03 | 0.03 | 79 | 1014.0 |
| 20260508034503 | 48 | 313 | 3.0 | 10.0 | 0.00 | 0.03 | 0.03 | 79 | 1014.0 |
| 20260508034003 | 48 | 299 | 3.0 | 11.0 | 0.00 | 0.03 | 0.03 | 79 | 1014.1 |
| 20260508033503 | 48 | 297 | 3.0 | 11.0 | 0.00 | 0.03 | 0.03 | 79 | 1014.1 |
| 20260508033003 | 48 | 291 | 3.0 | 8.0 | 0.00 | 0.03 | 0.03 | 79 | 1014.0 |
| 20260508032503 | 48 | 284 | 2.0 | 7.0 | 0.00 | 0.03 | 0.03 | 79 | 1014.0 |
| 20260508032003 | 48 | 278 | 3.0 | 7.0 | 0.00 | 0.03 | 0.03 | 80 | 1014.1 |
| 20260508031503 | 48 | 289 | 3.0 | 7.0 | 0.00 | 0.03 | 0.03 | 81 | 1013.9 |
| 20260508031003 | 48 | 286 | 2.0 | 5.0 | 0.00 | 0.03 | 0.03 | 81 | 1013.8 |
| 20260508030503 | 48 | 274 | 3.0 | 6.0 | 0.00 | 0.03 | 0.03 | 81 | 1013.8 |
| 20260508030003 | 48 | 295 | 3.0 | 10.0 | 0.00 | 0.03 | 0.03 | 81 | 1013.8 |
| 20260508025503 | 48 | 300 | 3.0 | 10.0 | 0.00 | 0.03 | 0.03 | 81 | 1013.6 |
| 20260508025003 | 47 | 302 | 3.0 | 10.0 | 0.00 | 0.03 | 0.03 | 82 | 1013.6 |
| 20260508024503 | 47 | 293 | 3.0 | 10.0 | 0.00 | 0.03 | 0.03 | 82 | 1013.6 |
| 20260508024003 | 47 | 266 | 2.0 | 6.0 | 0.00 | 0.03 | 0.03 | 83 | 1013.7 |
| 20260508023503 | 47 | 269 | 2.0 | 4.0 | 0.00 | 0.03 | 0.03 | 83 | 1013.6 |
| 20260508023003 | 47 | 276 | 2.0 | 4.0 | 0.00 | 0.03 | 0.03 | 83 | 1013.5 |
| 20260508022503 | 47 | 279 | 2.0 | 10.0 | 0.00 | 0.04 | 0.03 | 83 | 1013.6 |
| 20260508022003 | 46 | 279 | 2.0 | 10.0 | 0.00 | 0.04 | 0.03 | 83 | 1013.6 |
| 20260508021503 | 47 | 291 | 1.0 | 4.0 | 0.00 | 0.04 | 0.03 | 82 | 1013.3 |
| 20260508021003 | 47 | 280 | 2.0 | 9.0 | 0.00 | 0.04 | 0.03 | 81 | 1013.3 |
| 20260508020503 | 47 | 276 | 3.0 | 9.0 | 0.00 | 0.04 | 0.03 | 82 | 1013.2 |
| 20260508020003 | 47 | 284 | 2.0 | 6.0 | 0.00 | 0.04 | 0.03 | 81 | 1013.2 |
| 20260508015503 | 47 | 290 | 2.0 | 4.0 | 0.00 | 0.04 | 0.03 | 82 | 1013.1 |
| 20260508015024 | 47 | 283 | 2.0 | 5.0 | 0.00 | 0.04 | 0.03 | 81 | 1013.1 |
| 20260508014504 | 47 | 285 | 2.0 | 9.0 | 0.00 | 0.04 | 0.03 | 81 | 1013.0 |
| 20260508014003 | 47 | 293 | 2.0 | 9.0 | 0.00 | 0.04 | 0.03 | 81 | 1012.9 |
| 20260508013503 | 46 | 290 | 1.0 | 4.0 | 0.00 | 0.04 | 0.03 | 82 | 1012.9 |
| 20260508013024 | 46 | 285 | 1.0 | 3.0 | 0.00 | 0.04 | 0.03 | 82 | 1012.9 |
| 20260508012503 | 47 | 271 | 1.0 | 3.0 | 0.00 | 0.04 | 0.03 | 82 | 1012.8 |
| 20260508012106 | 47 | 265 | 2.0 | 5.0 | 0.00 | 0.05 | 0.03 | 81 | 1012.7 |
| 20260508011503 | 47 | 272 | 1.0 | 8.0 | 0.00 | 0.05 | 0.03 | 81 | 1012.5 |
| 20260508011024 | 47 | 282 | 1.0 | 8.0 | 0.00 | 0.05 | 0.03 | 80 | 1012.4 |
| 20260508010503 | 47 | 288 | 2.0 | 4.0 | 0.00 | 0.05 | 0.03 | 81 | 1012.4 |
| 20260508010003 | 47 | 286 | 2.0 | 7.0 | 0.00 | 0.05 | 0.03 | 81 | 1012.3 |
| 20260508005503 | 47 | 296 | 2.0 | 7.0 | 0.00 | 0.05 | 0.03 | 80 | 1012.3 |
| 20260508005003 | 47 | 323 | 1.0 | 4.0 | 0.00 | 0.05 | 0.03 | 80 | 1012.3 |
| 20260508004503 | 48 | 322 | 2.0 | 5.0 | 0.00 | 0.05 | 0.03 | 80 | 1012.2 |
| 20260508004003 | 48 | 318 | 3.0 | 7.0 | 0.00 | 0.05 | 0.03 | 79 | 1012.2 |
| 20260508003503 | 48 | 311 | 3.0 | 11.0 | 0.00 | 0.05 | 0.03 | 79 | 1012.2 |
| 20260508003003 | 48 | 307 | 3.0 | 11.0 | 0.00 | 0.05 | 0.03 | 78 | 1012.2 |
| 20260508002503 | 48 | 313 | 3.0 | 10.0 | 0.00 | 0.05 | 0.03 | 79 | 1012.3 |
| 20260508002003 | 48 | 314 | 3.0 | 10.0 | 0.00 | 0.05 | 0.03 | 78 | 1012.3 |
| 20260508001503 | 48 | 321 | 3.0 | 5.0 | 0.00 | 0.05 | 0.03 | 78 | 1012.2 |
| 20260508001003 | 48 | 325 | 4.0 | 9.0 | 0.00 | 0.05 | 0.03 | 78 | 1012.2 |
| 20260508000503 | 49 | 307 | 5.0 | 13.0 | 0.00 | 0.05 | 0.03 | 77 | 1012.2 |
| 20260508000004 | 49 | 300 | 6.0 | 13.0 | 0.00 | 0.05 | 0.03 | 77 | 1012.2 |
| 20260507235503 | 49 | 304 | 5.0 | 14.0 | 0.00 | 0.05 | 0.03 | 77 | 1012.2 |
| 20260507235024 | 49 | 306 | 5.0 | 14.0 | 0.00 | 0.05 | 0.03 | 77 | 1012.0 |
| 20260507234503 | 49 | 302 | 6.0 | 14.0 | 0.00 | 0.05 | 0.03 | 78 | 1012.1 |
| 20260507234003 | 49 | 301 | 6.0 | 14.0 | 0.00 | 0.05 | 0.03 | 78 | 1012.2 |
| 20260507233503 | 49 | 298 | 4.0 | 11.0 | 0.00 | 0.05 | 0.03 | 78 | 1012.1 |
| 20260507233003 | 49 | 302 | 5.0 | 10.0 | 0.00 | 0.05 | 0.03 | 78 | 1012.2 |
| 20260507232503 | 49 | 301 | 6.0 | 12.0 | 0.00 | 0.05 | 0.03 | 77 | 1012.2 |
| 20260507232003 | 49 | 291 | 7.0 | 14.0 | 0.00 | 0.05 | 0.03 | 77 | 1012.2 |
| 20260507231503 | 49 | 294 | 7.0 | 14.0 | 0.00 | 0.05 | 0.03 | 77 | 1012.1 |
| 20260507231003 | 49 | 297 | 6.0 | 16.0 | 0.00 | 0.05 | 0.03 | 77 | 1012.0 |
| 20260507230503 | 49 | 294 | 6.0 | 16.0 | 0.00 | 0.05 | 0.03 | 77 | 1012.0 |
| 20260507230004 | 50 | 301 | 6.0 | 13.0 | 0.00 | 0.05 | 0.03 | 78 | 1012.0 |
| 20260507225503 | 50 | 299 | 6.0 | 13.0 | 0.00 | 0.05 | 0.03 | 77 | 1011.9 |
| 20260507225003 | 50 | 289 | 7.0 | 13.0 | 0.00 | 0.05 | 0.03 | 77 | 1011.9 |
| 20260507224504 | 50 | 292 | 7.0 | 16.0 | 0.00 | 0.05 | 0.03 | 77 | 1011.9 |
| 20260507224003 | 51 | 296 | 7.0 | 16.0 | 0.00 | 0.05 | 0.03 | 78 | 1011.9 |
| 20260507223503 | 51 | 298 | 7.0 | 16.0 | 0.00 | 0.05 | 0.03 | 78 | 1011.8 |
| 20260507223003 | 51 | 302 | 7.0 | 16.0 | 0.00 | 0.05 | 0.03 | 79 | 1011.7 |
| 20260507222503 | 50 | 292 | 8.0 | 15.0 | 0.00 | 0.05 | 0.03 | 79 | 1011.6 |
| 20260507222024 | 50 | 290 | 8.0 | 16.0 | 0.00 | 0.05 | 0.03 | 80 | 1011.6 |
| 20260507221503 | 50 | 289 | 10.0 | 20.0 | 0.00 | 0.05 | 0.03 | 80 | 1011.4 |
| 20260507221003 | 51 | 289 | 9.0 | 22.0 | 0.00 | 0.05 | 0.03 | 79 | 1011.2 |
| 20260507220503 | 51 | 296 | 8.0 | 22.0 | 0.00 | 0.05 | 0.03 | 78 | 1011.1 |
| 20260507220003 | 52 | 294 | 8.0 | 17.0 | 0.00 | 0.05 | 0.03 | 78 | 1011.1 |
| 20260507215503 | 52 | 291 | 8.0 | 17.0 | 0.00 | 0.05 | 0.03 | 78 | 1011.1 |
| 20260507215024 | 52 | 291 | 8.0 | 16.0 | 0.00 | 0.05 | 0.03 | 80 | 1011.1 |
| 20260507214503 | 51 | 295 | 8.0 | 15.0 | 0.00 | 0.05 | 0.03 | 83 | 1011.0 |
| 20260507214003 | 50 | 292 | 9.0 | 17.0 | 0.00 | 0.05 | 0.03 | 85 | 1010.9 |
| 20260507213503 | 49 | 292 | 9.0 | 17.0 | 0.00 | 0.05 | 0.03 | 86 | 1011.0 |
| 20260507213003 | 49 | 299 | 9.0 | 16.0 | 0.00 | 0.05 | 0.03 | 87 | 1011.0 |
| 20260507212503 | 49 | 299 | 9.0 | 17.0 | 0.00 | 0.05 | 0.03 | 87 | 1010.8 |
| 20260507212003 | 50 | 300 | 9.0 | 17.0 | 0.00 | 0.05 | 0.03 | 86 | 1010.8 |
| 20260507211503 | 50 | 303 | 9.0 | 17.0 | 0.00 | 0.05 | 0.03 | 85 | 1010.8 |
| 20260507211003 | 51 | 304 | 8.0 | 17.0 | 0.00 | 0.05 | 0.03 | 84 | 1010.8 |
| 20260507210503 | 52 | 306 | 8.0 | 15.0 | 0.00 | 0.05 | 0.03 | 83 | 1010.7 |
| 20260507210003 | 53 | 304 | 7.0 | 14.0 | 0.00 | 0.05 | 0.03 | 81 | 1010.6 |
| 20260507205503 | 54 | 299 | 7.0 | 14.0 | 0.00 | 0.05 | 0.03 | 81 | 1010.3 |
| 20260507205024 | 54 | 301 | 6.0 | 14.0 | 0.00 | 0.05 | 0.03 | 81 | 1010.2 |
| 20260507204503 | 55 | 304 | 6.0 | 13.0 | 0.00 | 0.05 | 0.03 | 81 | 1010.1 |
| 20260507204024 | 56 | 303 | 6.0 | 13.0 | 0.00 | 0.05 | 0.03 | 79 | 1010.2 |
| 20260507203503 | 56 | 304 | 6.0 | 13.0 | 0.00 | 0.05 | 0.03 | 78 | 1010.1 |
| 20260507203024 | 57 | 302 | 7.0 | 15.0 | 0.00 | 0.05 | 0.03 | 78 | 1010.1 |
| 20260507202503 | 57 | 306 | 6.0 | 15.0 | 0.00 | 0.05 | 0.03 | 79 | 1010.1 |
| 20260507202003 | 57 | 307 | 6.0 | 13.0 | 0.00 | 0.05 | 0.03 | 76 | 1010.0 |
| 20260507201503 | 58 | 305 | 6.0 | 13.0 | 0.00 | 0.05 | 0.03 | 76 | 1009.9 |
| 20260507201003 | 59 | 300 | 6.0 | 15.0 | 0.00 | 0.05 | 0.03 | 74 | 1009.8 |
| 20260507200503 | 59 | 292 | 6.0 | 15.0 | 0.00 | 0.05 | 0.03 | 75 | 1009.8 |
| 20260507200045 | 58 | 282 | 5.0 | 15.0 | 0.00 | 0.05 | 0.03 | 77 | 1009.8 |
| 20260507195503 | 58 | 279 | 6.0 | 13.0 | 0.00 | 0.05 | 0.03 | 77 | 1009.9 |
| 20260507195003 | 58 | 282 | 6.0 | 14.0 | 0.00 | 0.05 | 0.03 | 77 | 1010.0 |
| 20260507194503 | 57 | 286 | 7.0 | 17.0 | 0.00 | 0.05 | 0.03 | 78 | 1010.0 |
| 20260507194003 | 57 | 285 | 7.0 | 17.0 | 0.00 | 0.05 | 0.03 | 77 | 1010.3 |
| 20260507193503 | 58 | 275 | 6.0 | 13.0 | 0.00 | 0.05 | 0.03 | 78 | 1010.2 |
| 20260507193003 | 58 | 269 | 5.0 | 12.0 | 0.00 | 0.05 | 0.03 | 78 | 1010.2 |
| 20260507192503 | 58 | 281 | 7.0 | 13.0 | 0.00 | 0.05 | 0.03 | 77 | 1010.3 |
| 20260507192024 | 58 | 289 | 7.0 | 13.0 | 0.00 | 0.05 | 0.03 | 77 | 1010.3 |
| 20260507191503 | 59 | 288 | 7.0 | 15.0 | 0.00 | 0.05 | 0.03 | 75 | 1010.3 |
| 20260507191003 | 60 | 289 | 6.0 | 15.0 | 0.00 | 0.05 | 0.03 | 73 | 1010.3 |
| 20260507190503 | 61 | 288 | 5.0 | 14.0 | 0.00 | 0.05 | 0.03 | 70 | 1010.3 |
| 20260507190004 | 62 | 287 | 5.0 | 9.0 | 0.00 | 0.05 | 0.03 | 69 | 1010.3 |
| 20260507185503 | 63 | 291 | 5.0 | 11.0 | 0.00 | 0.05 | 0.03 | 68 | 1010.4 |
| 20260507185003 | 64 | 294 | 6.0 | 11.0 | 0.00 | 0.05 | 0.03 | 69 | 1010.4 |
| 20260507184503 | 63 | 298 | 7.0 | 14.0 | 0.00 | 0.05 | 0.03 | 74 | 1010.4 |
| 20260507184003 | 62 | 299 | 7.0 | 14.0 | 0.00 | 0.05 | 0.03 | 70 | 1010.3 |
| 20260507183503 | 62 | 299 | 7.0 | 14.0 | 0.00 | 0.05 | 0.03 | 71 | 1010.4 |
| 20260507183003 | 63 | 296 | 8.0 | 15.0 | 0.00 | 0.05 | 0.03 | 71 | 1010.4 |
| 20260507182503 | 64 | 293 | 8.0 | 15.0 | 0.00 | 0.05 | 0.03 | 68 | 1010.4 |
| 20260507182003 | 64 | 286 | 7.0 | 15.0 | 0.00 | 0.05 | 0.03 | 72 | 1010.3 |
| 20260507181503 | 63 | 282 | 7.0 | 17.0 | 0.00 | 0.05 | 0.03 | 72 | 1010.2 |
| 20260507181003 | 63 | 291 | 7.0 | 17.0 | 0.00 | 0.05 | 0.03 | 70 | 1010.3 |
| 20260507180503 | 63 | 299 | 7.0 | 13.0 | 0.00 | 0.05 | 0.03 | 73 | 1010.2 |
| 20260507180003 | 62 | 293 | 6.0 | 12.0 | 0.00 | 0.05 | 0.03 | 76 | 1010.2 |
| 20260507175503 | 61 | 294 | 5.0 | 11.0 | 0.00 | 0.05 | 0.03 | 75 | 1010.2 |
| 20260507175003 | 61 | 315 | 5.0 | 13.0 | 0.00 | 0.05 | 0.03 | 75 | 1010.2 |
| 20260507174503 | 62 | 317 | 6.0 | 15.0 | 0.00 | 0.05 | 0.03 | 74 | 1010.1 |
| 20260507174024 | 62 | 312 | 6.0 | 15.0 | 0.00 | 0.05 | 0.03 | 73 | 1010.1 |
| 20260507173503 | 63 | 310 | 6.0 | 12.0 | 0.00 | 0.05 | 0.03 | 73 | 1010.1 |
| 20260507173003 | 63 | 310 | 6.0 | 13.0 | 0.00 | 0.05 | 0.03 | 72 | 1010.0 |
| 20260507172503 | 64 | 303 | 6.0 | 13.0 | 0.00 | 0.05 | 0.03 | 70 | 1010.0 |
| 20260507172003 | 65 | 295 | 5.0 | 12.0 | 0.00 | 0.05 | 0.03 | 68 | 1009.8 |
| 20260507171503 | 66 | 300 | 7.0 | 14.0 | 0.00 | 0.05 | 0.03 | 66 | 1009.9 |
| 20260507171003 | 67 | 297 | 7.0 | 14.0 | 0.00 | 0.05 | 0.03 | 65 | 1009.8 |
| 20260507170503 | 69 | 296 | 6.0 | 13.0 | 0.00 | 0.05 | 0.03 | 64 | 1009.8 |
| 20260507170003 | 68 | 296 | 6.0 | 13.0 | 0.00 | 0.05 | 0.03 | 69 | 1009.7 |
| 20260507165504 | 68 | 291 | 6.0 | 13.0 | 0.00 | 0.05 | 0.03 | 67 | 1009.8 |
| 20260507165003 | 68 | 290 | 7.0 | 15.0 | 0.00 | 0.05 | 0.03 | 67 | 1009.8 |
| 20260507164503 | 68 | 294 | 8.0 | 15.0 | 0.00 | 0.05 | 0.03 | 67 | 1009.8 |
| 20260507164024 | 67 | 284 | 6.0 | 15.0 | 0.00 | 0.05 | 0.03 | 67 | 1010.0 |
| 20260507163503 | 67 | 260 | 5.0 | 12.0 | 0.00 | 0.05 | 0.03 | 67 | 1010.0 |
| 20260507163003 | 67 | 269 | 7.0 | 15.0 | 0.00 | 0.06 | 0.03 | 68 | 1010.0 |
| 20260507162503 | 66 | 269 | 7.0 | 15.0 | 0.00 | 0.06 | 0.03 | 67 | 1010.0 |
| 20260507162003 | 66 | 271 | 6.0 | 14.0 | 0.00 | 0.06 | 0.03 | 72 | 1010.0 |
| 20260507161503 | 66 | 285 | 6.0 | 14.0 | 0.00 | 0.06 | 0.03 | 70 | 1010.0 |
| 20260507161003 | 66 | 289 | 6.0 | 12.0 | 0.00 | 0.06 | 0.03 | 69 | 1010.0 |
| 20260507160503 | 66 | 290 | 5.0 | 10.0 | 0.00 | 0.06 | 0.03 | 67 | 1010.0 |
| 20260507160003 | 66 | 292 | 4.0 | 10.0 | 0.00 | 0.06 | 0.03 | 67 | 1009.9 |
| 20260507155503 | 67 | 292 | 3.0 | 10.0 | 0.00 | 0.06 | 0.03 | 69 | 1010.0 |
| 20260507155003 | 67 | 305 | 2.0 | 7.0 | 0.00 | 0.06 | 0.03 | 71 | 1009.9 |
| 20260507154504 | 66 | 304 | 3.0 | 7.0 | 0.00 | 0.06 | 0.03 | 70 | 1009.8 |
| 20260507154004 | 66 | 286 | 3.0 | 11.0 | 0.00 | 0.06 | 0.03 | 72 | 1009.9 |
| 20260507153504 | 65 | 279 | 3.0 | 11.0 | 0.00 | 0.06 | 0.03 | 77 | 1009.8 |
| 20260507153003 | 65 | 275 | 3.0 | 14.0 | 0.00 | 0.06 | 0.03 | 77 | 1009.9 |
| 20260507152503 | 65 | 278 | 5.0 | 14.0 | 0.00 | 0.06 | 0.03 | 75 | 1010.0 |
| 20260507152003 | 64 | 287 | 5.0 | 10.0 | 0.00 | 0.06 | 0.03 | 76 | 1010.0 |
| 20260507151504 | 64 | 289 | 4.0 | 10.0 | 0.00 | 0.06 | 0.03 | 74 | 1009.8 |
| 20260507151003 | 65 | 301 | 3.0 | 9.0 | 0.00 | 0.06 | 0.03 | 75 | 1009.8 |
| 20260507150503 | 64 | 343 | 3.0 | 7.0 | 0.00 | 0.06 | 0.03 | 78 | 1009.8 |
| 20260507150003 | 64 | 323 | 2.0 | 7.0 | 0.00 | 0.06 | 0.03 | 77 | 1009.8 |
| 20260507145524 | 63 | 299 | 2.0 | 6.0 | 0.00 | 0.06 | 0.03 | 79 | 1010.0 |
| 20260507145003 | 64 | 325 | 2.0 | 6.0 | 0.00 | 0.06 | 0.03 | 77 | 1010.1 |
| 20260507144503 | 64 | 345 | 1.0 | 5.0 | 0.00 | 0.06 | 0.03 | 80 | 1010.1 |
| 20260507144003 | 63 | 337 | 1.0 | 4.0 | 0.00 | 0.06 | 0.03 | 83 | 1010.2 |
| 20260507143503 | 63 | 97 | 0.0 | 2.0 | 0.00 | 0.06 | 0.03 | 85 | 1010.2 |
| 20260507143003 | 62 | 93 | 1.0 | 3.0 | 0.00 | 0.06 | 0.03 | 85 | 1010.1 |
| 20260507142504 | 62 | 85 | 1.0 | 3.0 | 0.00 | 0.06 | 0.03 | 85 | 1010.2 |
| 20260507142003 | 62 | 69 | 1.0 | 3.0 | 0.00 | 0.06 | 0.03 | 86 | 1010.3 |
| 20260507141503 | 62 | 45 | 1.0 | 3.0 | 0.00 | 0.06 | 0.03 | 87 | 1010.3 |
| 20260507141024 | 62 | 38 | 1.0 | 4.0 | 0.00 | 0.06 | 0.03 | 87 | 1010.2 |
| 20260507140524 | 62 | 39 | 2.0 | 4.0 | 0.00 | 0.06 | 0.03 | 86 | 1010.2 |
| 20260507140003 | 62 | 36 | 3.0 | 5.0 | 0.00 | 0.06 | 0.03 | 84 | 1010.1 |